Flag for Syria Weather past 2 weeks in Damascus, Syria

Now
45 °F

Clear.


Feels Like: 42 °F
Forecast: 43 / 81 °F
Wind: 5 mph from Northwest

Location: Damascus Int. Airport

Current Time: Apr 19, 2015 at 7:37:51 AM

Latest Report: Apr 19, 2015 at 6:00 AM


Visibility: 10 mi

Pressure: 30.09 "Hg

Humidity: 76%

Dew point: 37 °F

Location of DamascusLocation

Historic Weather in Damascus — Graph

°F

Damascus temperature yesterday

Maximum temperature yesterday: 77 °F (at 3:00 PM)
Minimum temperature yesterday: 46 °F (at 5:00 AM)
Average temperature yesterday: 60 °F

Past Weeks' High & Low Weather Summary

 TemperatureHumidityPressure
High90 °F (Apr 8, 2:00 PM)94% (Apr 5, 8:35 AM)30.27 "Hg (Apr 5, 8:35 AM)
Low39 °F (Apr 5, 6:00 AM)11% (Apr 8, 3:00 PM)29.71 "Hg (Apr 9, 4:00 AM)
Average58 °F51%30.00 "Hg
* Reported Apr 4 6:00 AM — Apr 19 6:00 AM, Damascus, Weather by CustomWeather, © 2015

Note: Actual official high and low records may vary slightly from our data, if they occured in-between our weather recording intervals... More about our weather records

Advertising

Damascus weather history for previous 24 hours

 ConditionsComfort  
Time TempWeatherWind HumidityBarometerVisibility
6:00 AM
Sun, Apr 19
45 °FClear.5 mph76%30.09 "Hg10 mi
5:00 AM45 °FClear.9 mph76%30.09 "Hg10 mi
4:00 AM46 °FClear.7 mph71%30.09 "Hg10 mi
3:00 AM48 °FClear.12 mph71%30.09 "Hg10 mi
2:00 AM52 °FClear.12 mph62%30.12 "Hg10 mi
1:00 AM52 °FClear.18 mph62%30.12 "Hg10 mi
12:00 AM52 °FClear.14 mph67%30.12 "Hg10 mi
11:00 PM
Sat, Apr 18
55 °FClear.16 mph59%30.12 "Hg10 mi
10:00 PM57 °FClear.18 mph55%30.12 "Hg10 mi
9:00 PM59 °FClear.18 mph51%30.12 "Hg10 mi
8:00 PM63 °FSunny.18 mph37%30.09 "Hg10 mi
7:00 PM66 °FSunny.23 mph30%30.09 "Hg10 mi
6:00 PM72 °FSunny.23 mph27%30.07 "Hg10 mi
5:00 PM75 °FSunny.23 mph22%30.07 "Hg10 mi
4:00 PM77 °FSunny.5 mph22%30.07 "Hg10 mi
3:00 PM77 °FSunny.5 mph15%30.09 "Hg10 mi
2:00 PM75 °FSunny.12 mph21%30.15 "Hg10 mi
1:00 PM73 °FSunny.12 mph23%30.18 "Hg10 mi
12:00 PM70 °FSunny.12 mph33%30.21 "Hg10 mi
11:00 AM63 °FSunny.5 mph45%30.21 "Hg10 mi
10:00 AM59 °FSunny.5 mph55%30.24 "Hg10 mi
9:00 AM55 °FSunny.7 mph67%30.21 "Hg10 mi
8:00 AM50 °FCool.12 mph82%30.24 "Hg5 mi
7:00 AM46 °FFog.10 mph93%30.21 "Hg2 mi
Weather by CustomWeather, © 2015

See weather overviewHow to use our weather pages